GIPSM EIDL-EINN

Flight info

Callsign GIPSM
Flight time 1h 12m
Altitude 4500
Route CASTLEBAR DCT GALWAY DCT ENNIS
Aircraft BE58/L-SDFGRY/C

Departure

Time 2026-04-22 07:13
Airport Donegal Airport (EIDL)

Arrival

Time 2026-04-22 08:26
Airport Shannon Airport (EINN)
Time Latitude Longitude Altitude Speed Heading
2026-04-22 07:06 55.03849 -8.34269 0 ft 0 kts 290°
2026-04-22 07:10 55.03852 -8.34276 0 ft 3 kts 309°
2026-04-22 07:11 55.03876 -8.34342 2 ft 6 kts 288°
2026-04-22 07:11 55.03877 -8.34344 1 ft 0 kts 287°
2026-04-22 07:12 55.03884 -8.34387 1 ft 8 kts 283°
2026-04-22 07:12 55.03949 -8.34404 2 ft 15 kts 15°
2026-04-22 07:12 55.04169 -8.34258 2 ft 60 kts 20°
2026-04-22 07:12 55.04684 -8.33935 30 ft 90 kts 31°
2026-04-22 07:13 55.05287 -8.33588 200 ft 92 kts 31°
2026-04-22 07:13 55.05889 -8.33220 425 ft 94 kts 31°
2026-04-22 07:13 55.06530 -8.32894 631 ft 103 kts 17°
2026-04-22 07:13 55.07256 -8.33404 787 ft 131 kts 322°
2026-04-22 07:14 55.07676 -8.34857 987 ft 137 kts 288°
2026-04-22 07:14 55.07723 -8.36525 1131 ft 140 kts 246°
2026-04-22 07:14 55.07183 -8.37767 1302 ft 128 kts 207°
2026-04-22 07:14 55.06457 -8.38774 1457 ft 134 kts 205°
2026-04-22 07:15 55.05719 -8.39660 1758 ft 124 kts 195°
2026-04-22 07:15 55.04969 -8.40400 1915 ft 126 kts 190°
2026-04-22 07:15 55.04171 -8.41007 2156 ft 121 kts 188°
2026-04-22 07:15 55.03411 -8.41543 2409 ft 119 kts 184°
2026-04-22 07:16 55.02642 -8.42053 2736 ft 118 kts 187°
2026-04-22 07:16 55.01883 -8.42604 3000 ft 119 kts 186°
2026-04-22 07:16 55.01125 -8.43173 3283 ft 120 kts 190°
2026-04-22 07:16 55.00377 -8.43856 3553 ft 123 kts 193°
2026-04-22 07:17 54.99612 -8.44574 3796 ft 125 kts 194°
2026-04-22 07:17 54.98862 -8.45307 4068 ft 125 kts 195°
2026-04-22 07:17 54.98095 -8.46059 4306 ft 126 kts 195°
2026-04-22 07:17 54.97326 -8.46837 4366 ft 133 kts 198°
2026-04-22 07:18 54.96528 -8.47692 4477 ft 134 kts 198°
2026-04-22 07:18 54.95701 -8.48544 4498 ft 142 kts 198°
2026-04-22 07:18 54.94856 -8.49425 4571 ft 143 kts 198°
2026-04-22 07:18 54.93986 -8.50330 4618 ft 147 kts 198°
2026-04-22 07:19 54.93098 -8.51248 4637 ft 151 kts 199°
2026-04-22 07:19 54.92199 -8.52208 4628 ft 156 kts 200°
2026-04-22 07:19 54.91277 -8.53225 4643 ft 158 kts 201°
2026-04-22 07:19 54.90340 -8.54238 4636 ft 160 kts 201°
2026-04-22 07:20 54.89393 -8.55273 4630 ft 162 kts 201°
2026-04-22 07:20 54.88435 -8.56318 4653 ft 161 kts 201°
2026-04-22 07:20 54.87474 -8.57321 4625 ft 163 kts 200°
2026-04-22 07:20 54.86486 -8.58310 4647 ft 162 kts 199°
2026-04-22 07:21 54.85510 -8.59269 4666 ft 161 kts 198°
2026-04-22 07:21 54.84530 -8.60197 4647 ft 162 kts 197°
2026-04-22 07:21 54.83534 -8.61098 4667 ft 161 kts 196°
2026-04-22 07:21 54.82525 -8.61974 4657 ft 162 kts 194°
2026-04-22 07:22 54.81497 -8.62803 4612 ft 163 kts 193°
2026-04-22 07:22 54.80477 -8.63591 4650 ft 160 kts 192°
2026-04-22 07:22 54.79448 -8.64362 4638 ft 161 kts 192°
2026-04-22 07:22 54.78416 -8.65118 4639 ft 160 kts 191°
2026-04-22 07:23 54.77396 -8.65870 4643 ft 160 kts 191°
2026-04-22 07:23 54.76370 -8.66643 4629 ft 160 kts 192°
2026-04-22 07:23 54.75354 -8.67423 4621 ft 160 kts 192°
2026-04-22 07:23 54.74342 -8.68281 4609 ft 164 kts 198°
2026-04-22 07:24 54.73374 -8.69379 4586 ft 169 kts 205°
2026-04-22 07:24 54.72467 -8.70689 4572 ft 171 kts 210°
2026-04-22 07:24 54.71583 -8.72032 4572 ft 170 kts 210°
2026-04-22 07:24 54.70693 -8.73418 4546 ft 172 kts 211°
2026-04-22 07:25 54.69814 -8.74840 4531 ft 173 kts 213°
2026-04-22 07:25 54.68967 -8.76285 4531 ft 173 kts 215°
2026-04-22 07:25 54.68121 -8.77799 4517 ft 174 kts 216°
2026-04-22 07:25 54.67296 -8.79300 4511 ft 174 kts 216°
2026-04-22 07:26 54.66473 -8.80838 4505 ft 174 kts 217°
2026-04-22 07:26 54.65672 -8.82399 4485 ft 175 kts 219°
2026-04-22 07:26 54.64870 -8.83992 4465 ft 175 kts 218°
2026-04-22 07:26 54.64063 -8.85567 4470 ft 174 kts 218°
2026-04-22 07:27 54.63260 -8.87128 4451 ft 175 kts 218°
2026-04-22 07:27 54.62447 -8.88730 4464 ft 174 kts 219°
2026-04-22 07:27 54.61651 -8.90305 4458 ft 174 kts 218°
2026-04-22 07:27 54.60863 -8.91850 4461 ft 173 kts 218°
2026-04-22 07:28 54.59284 -8.94996 4443 ft 174 kts 219°
2026-04-22 07:28 54.58494 -8.96562 4445 ft 173 kts 218°
2026-04-22 07:28 54.57703 -8.98129 4441 ft 173 kts 218°
2026-04-22 07:29 54.56913 -8.99719 4417 ft 175 kts 219°
2026-04-22 07:29 54.56143 -9.01308 4426 ft 174 kts 220°
2026-04-22 07:29 54.55373 -9.02931 4420 ft 175 kts 220°
2026-04-22 07:29 54.54609 -9.04581 4396 ft 176 kts 221°
2026-04-22 07:30 54.53870 -9.06259 4397 ft 177 kts 223°
2026-04-22 07:30 54.53150 -9.08018 4384 ft 179 kts 226°
2026-04-22 07:30 54.52479 -9.09835 4391 ft 180 kts 230°
2026-04-22 07:30 54.51873 -9.11699 4382 ft 182 kts 233°
2026-04-22 07:31 54.51324 -9.13687 4377 ft 184 kts 238°
2026-04-22 07:31 54.50867 -9.15743 4373 ft 186 kts 244°
2026-04-22 07:31 54.50509 -9.17912 4365 ft 189 kts 250°
2026-04-22 07:31 54.50269 -9.20158 4364 ft 190 kts 255°
2026-04-22 07:32 54.49940 -9.22298 4370 ft 184 kts 240°
2026-04-22 07:32 54.49334 -9.24173 4361 ft 176 kts 222°
2026-04-22 07:32 54.48483 -9.25569 4411 ft 161 kts 201°
2026-04-22 07:32 54.47491 -9.26313 4421 ft 151 kts 184°
2026-04-22 07:33 54.46457 -9.26800 4376 ft 153 kts 182°
2026-04-22 07:33 54.45425 -9.27255 4414 ft 150 kts 182°
2026-04-22 07:33 54.44388 -9.27685 4394 ft 151 kts 180°
2026-04-22 07:33 54.43341 -9.28062 4377 ft 152 kts 180°
2026-04-22 07:34 54.42323 -9.28419 4406 ft 150 kts 179°
2026-04-22 07:34 54.41299 -9.28796 4396 ft 151 kts 180°
2026-04-22 07:34 54.40259 -9.29221 4397 ft 152 kts 182°
2026-04-22 07:34 54.39240 -9.29668 4394 ft 151 kts 180°
2026-04-22 07:35 54.38209 -9.30015 4396 ft 150 kts 178°
2026-04-22 07:35 54.37175 -9.30315 4408 ft 149 kts 177°
2026-04-22 07:35 54.36160 -9.30593 4411 ft 148 kts 177°
2026-04-22 07:35 54.35128 -9.30890 4407 ft 149 kts 178°
2026-04-22 07:36 54.34107 -9.31208 4434 ft 147 kts 177°
2026-04-22 07:36 54.33093 -9.31478 4416 ft 148 kts 176°
2026-04-22 07:36 54.32070 -9.31729 4413 ft 148 kts 176°
2026-04-22 07:36 54.31066 -9.31992 4420 ft 148 kts 177°
2026-04-22 07:37 54.30034 -9.32287 4403 ft 149 kts 178°
2026-04-22 07:37 54.29005 -9.32591 4412 ft 149 kts 179°
2026-04-22 07:37 54.27991 -9.32920 4412 ft 149 kts 178°
2026-04-22 07:37 54.26968 -9.33236 4414 ft 149 kts 178°
2026-04-22 07:38 54.25940 -9.33508 4400 ft 149 kts 176°
2026-04-22 07:38 54.24917 -9.33728 4390 ft 148 kts 175°
2026-04-22 07:38 54.23893 -9.33901 4405 ft 146 kts 173°
2026-04-22 07:38 54.22887 -9.34048 4392 ft 147 kts 173°
2026-04-22 07:39 54.21869 -9.34209 4396 ft 147 kts 174°
2026-04-22 07:39 54.20854 -9.34422 4415 ft 147 kts 176°
2026-04-22 07:39 54.19830 -9.34694 4392 ft 148 kts 175°
2026-04-22 07:39 54.18813 -9.34882 4400 ft 146 kts 173°
2026-04-22 07:40 54.17809 -9.35001 4410 ft 144 kts 171°
2026-04-22 07:40 54.16812 -9.35084 4403 ft 144 kts 171°
2026-04-22 07:40 54.15808 -9.35169 4397 ft 145 kts 171°
2026-04-22 07:40 54.14809 -9.35173 4394 ft 140 kts 164°
2026-04-22 07:41 54.13863 -9.34912 4378 ft 137 kts 156°
2026-04-22 07:41 54.12964 -9.34431 4392 ft 133 kts 150°
2026-04-22 07:41 54.12103 -9.33882 4391 ft 133 kts 151°
2026-04-22 07:41 54.11198 -9.33418 4371 ft 137 kts 156°
2026-04-22 07:42 54.10254 -9.33117 4373 ft 139 kts 160°
2026-04-22 07:42 54.09306 -9.32874 4387 ft 138 kts 160°
2026-04-22 07:42 54.08325 -9.32734 4360 ft 144 kts 168°
2026-04-22 07:42 54.07299 -9.32929 4339 ft 152 kts 180°
2026-04-22 07:43 54.06290 -9.33527 4360 ft 156 kts 191°
2026-04-22 07:43 54.05298 -9.34300 4369 ft 157 kts 192°
2026-04-22 07:43 54.04317 -9.35093 4352 ft 158 kts 192°
2026-04-22 07:43 54.03330 -9.35907 4363 ft 157 kts 193°
2026-04-22 07:44 54.02336 -9.36713 4353 ft 157 kts 192°
2026-04-22 07:44 54.01368 -9.37526 4354 ft 155 kts 194°
2026-04-22 07:44 54.00393 -9.38350 4219 ft 157 kts 193°
2026-04-22 07:44 53.99434 -9.39096 4299 ft 149 kts 189°
2026-04-22 07:45 53.98473 -9.39751 4315 ft 149 kts 187°
2026-04-22 07:45 53.97514 -9.40372 4352 ft 148 kts 187°
2026-04-22 07:45 53.96539 -9.40962 4358 ft 149 kts 185°
2026-04-22 07:45 53.95544 -9.41491 4334 ft 149 kts 183°
2026-04-22 07:46 53.94547 -9.41918 4318 ft 149 kts 181°
2026-04-22 07:46 53.93520 -9.42329 4292 ft 150 kts 180°
2026-04-22 07:46 53.92514 -9.42741 4320 ft 150 kts 182°
2026-04-22 07:46 53.91503 -9.43224 4291 ft 152 kts 182°
2026-04-22 07:47 53.90480 -9.43668 4299 ft 150 kts 180°
2026-04-22 07:47 53.89475 -9.44067 4314 ft 149 kts 180°
2026-04-22 07:47 53.88457 -9.44428 4310 ft 148 kts 178°
2026-04-22 07:47 53.87453 -9.44716 4329 ft 146 kts 176°
2026-04-22 07:48 53.86448 -9.44913 4333 ft 144 kts 173°
2026-04-22 07:48 53.85455 -9.45047 4333 ft 144 kts 172°
2026-04-22 07:48 53.84455 -9.45146 4347 ft 142 kts 170°
2026-04-22 07:48 53.83473 -9.45188 4359 ft 141 kts 168°
2026-04-22 07:49 53.82502 -9.45151 4344 ft 141 kts 166°
2026-04-22 07:49 53.81509 -9.45023 4291 ft 141 kts 163°
2026-04-22 07:49 53.80546 -9.44891 4252 ft 138 kts 163°
2026-04-22 07:49 53.79575 -9.44751 4085 ft 142 kts 164°
2026-04-22 07:50 53.78600 -9.44637 3983 ft 141 kts 164°
2026-04-22 07:50 53.77633 -9.44511 3897 ft 138 kts 163°
2026-04-22 07:50 53.76663 -9.44360 3763 ft 140 kts 163°
2026-04-22 07:50 53.75707 -9.44215 3680 ft 138 kts 163°
2026-04-22 07:51 53.74753 -9.44091 3582 ft 138 kts 164°
2026-04-22 07:51 53.73793 -9.43961 3470 ft 137 kts 163°
2026-04-22 07:51 53.72852 -9.43801 3426 ft 136 kts 162°
2026-04-22 07:51 53.71915 -9.43587 3397 ft 136 kts 160°
2026-04-22 07:52 53.70983 -9.43342 3400 ft 133 kts 159°
2026-04-22 07:52 53.70086 -9.43071 3424 ft 130 kts 158°
2026-04-22 07:52 53.69190 -9.42752 3377 ft 131 kts 156°
2026-04-22 07:52 53.68321 -9.42368 3371 ft 128 kts 155°
2026-04-22 07:53 53.67422 -9.42095 3301 ft 132 kts 159°
2026-04-22 07:53 53.66518 -9.41786 3274 ft 132 kts 156°
2026-04-22 07:53 53.65632 -9.41482 3316 ft 130 kts 158°
2026-04-22 07:53 53.64712 -9.41273 3280 ft 136 kts 163°
2026-04-22 07:54 53.63763 -9.41123 3283 ft 135 kts 161°
2026-04-22 07:54 53.62845 -9.40943 3304 ft 133 kts 162°
2026-04-22 07:54 53.61909 -9.40805 3285 ft 136 kts 164°
2026-04-22 07:54 53.60971 -9.40710 3302 ft 134 kts 163°
2026-04-22 07:55 53.60039 -9.40551 3293 ft 134 kts 161°
2026-04-22 07:55 53.59109 -9.40360 3281 ft 134 kts 161°
2026-04-22 07:55 53.58190 -9.40192 3299 ft 133 kts 162°
2026-04-22 07:55 53.57255 -9.40058 3285 ft 134 kts 162°
2026-04-22 07:56 53.56341 -9.39877 3281 ft 132 kts 160°
2026-04-22 07:56 53.55436 -9.39613 3278 ft 131 kts 157°
2026-04-22 07:56 53.54554 -9.39259 3292 ft 128 kts 154°
2026-04-22 07:56 53.53710 -9.38797 3303 ft 127 kts 151°
2026-04-22 07:57 53.52877 -9.38305 3314 ft 126 kts 150°
2026-04-22 07:57 53.52062 -9.37791 3296 ft 127 kts 149°
2026-04-22 07:57 53.51236 -9.37262 3307 ft 126 kts 150°
2026-04-22 07:57 53.50404 -9.36759 3297 ft 127 kts 151°
2026-04-22 07:58 53.49551 -9.36295 3283 ft 129 kts 153°
2026-04-22 07:58 53.48680 -9.35920 3297 ft 130 kts 157°
2026-04-22 07:58 53.47798 -9.35605 3287 ft 130 kts 155°
2026-04-22 07:58 53.46938 -9.35179 3284 ft 128 kts 151°
2026-04-22 07:59 53.46105 -9.34657 3289 ft 126 kts 148°
2026-04-22 07:59 53.45294 -9.34099 3292 ft 126 kts 148°
2026-04-22 07:59 53.44475 -9.33553 3290 ft 126 kts 149°
2026-04-22 07:59 53.43684 -9.32981 3307 ft 123 kts 146°
2026-04-22 08:00 53.42910 -9.32352 3303 ft 123 kts 144°
2026-04-22 08:00 53.42140 -9.31701 3283 ft 124 kts 145°
2026-04-22 08:00 53.41368 -9.31069 3286 ft 123 kts 143°
2026-04-22 08:00 53.40628 -9.30365 3293 ft 122 kts 142°
2026-04-22 08:01 53.39877 -9.29664 3272 ft 124 kts 143°
2026-04-22 08:01 53.39115 -9.28975 3271 ft 124 kts 144°
2026-04-22 08:01 53.38356 -9.28318 3286 ft 123 kts 144°
2026-04-22 08:01 53.37598 -9.27650 3242 ft 125 kts 142°
2026-04-22 08:02 53.36855 -9.26904 3231 ft 123 kts 141°
2026-04-22 08:02 53.36107 -9.26185 3167 ft 124 kts 141°
2026-04-22 08:02 53.35382 -9.25402 3088 ft 125 kts 138°
2026-04-22 08:02 53.34658 -9.24607 3089 ft 122 kts 139°
2026-04-22 08:03 53.33953 -9.23826 3024 ft 124 kts 140°
2026-04-22 08:03 53.33183 -9.23107 2953 ft 126 kts 143°
2026-04-22 08:03 53.32399 -9.22460 2922 ft 125 kts 145°
2026-04-22 08:03 53.31618 -9.21843 2852 ft 127 kts 144°
2026-04-22 08:04 53.30825 -9.21181 2792 ft 126 kts 142°
2026-04-22 08:04 53.30081 -9.20445 2760 ft 123 kts 140°
2026-04-22 08:04 53.29344 -9.19689 2669 ft 126 kts 140°
2026-04-22 08:04 53.28572 -9.18970 2617 ft 127 kts 141°
2026-04-22 08:05 53.27806 -9.18267 2591 ft 126 kts 141°
2026-04-22 08:05 53.27020 -9.17601 2540 ft 127 kts 143°
2026-04-22 08:05 53.26225 -9.16929 2481 ft 127 kts 142°
2026-04-22 08:05 53.25460 -9.16230 2448 ft 126 kts 140°
2026-04-22 08:06 53.24689 -9.15517 2391 ft 128 kts 141°
2026-04-22 08:06 53.23907 -9.14807 2357 ft 127 kts 141°
2026-04-22 08:06 53.23153 -9.14064 2293 ft 127 kts 138°
2026-04-22 08:06 53.22405 -9.13263 2250 ft 126 kts 137°
2026-04-22 08:07 53.21674 -9.12450 2246 ft 125 kts 136°
2026-04-22 08:07 53.20964 -9.11627 2251 ft 124 kts 136°
2026-04-22 08:07 53.20259 -9.10799 2237 ft 124 kts 135°
2026-04-22 08:07 53.19572 -9.09963 2237 ft 123 kts 134°
2026-04-22 08:08 53.18878 -9.09106 2213 ft 125 kts 136°
2026-04-22 08:08 53.18130 -9.08336 2206 ft 127 kts 139°
2026-04-22 08:08 53.17355 -9.07605 2199 ft 128 kts 140°
2026-04-22 08:08 53.16574 -9.06901 2196 ft 127 kts 141°
2026-04-22 08:09 53.15825 -9.06128 2187 ft 125 kts 136°
2026-04-22 08:09 53.15125 -9.05297 2181 ft 125 kts 134°
2026-04-22 08:09 53.14437 -9.04382 2163 ft 125 kts 130°
2026-04-22 08:09 53.13771 -9.03475 2211 ft 124 kts 134°
2026-04-22 08:10 53.13089 -9.02617 2204 ft 123 kts 134°
2026-04-22 08:10 53.12384 -9.01718 2202 ft 129 kts 133°
2026-04-22 08:10 53.11698 -9.00850 2356 ft 120 kts 133°
2026-04-22 08:10 53.10996 -9.00036 2311 ft 126 kts 137°
2026-04-22 08:11 53.10232 -8.99268 2271 ft 129 kts 140°
2026-04-22 08:11 53.09435 -8.98585 2363 ft 127 kts 144°
2026-04-22 08:11 53.08631 -8.98009 2377 ft 128 kts 147°
2026-04-22 08:11 53.07777 -8.97496 2312 ft 133 kts 150°
2026-04-22 08:12 53.06895 -8.97024 2356 ft 130 kts 149°
2026-04-22 08:12 53.06019 -8.96631 2378 ft 132 kts 155°
2026-04-22 08:12 53.05106 -8.96324 2317 ft 137 kts 156°
2026-04-22 08:12 53.04173 -8.96032 2311 ft 136 kts 156°
2026-04-22 08:13 53.03239 -8.95732 2300 ft 135 kts 154°
2026-04-22 08:13 53.02332 -8.95342 2294 ft 134 kts 153°
2026-04-22 08:13 53.01407 -8.95053 2260 ft 138 kts 158°
2026-04-22 08:13 53.00455 -8.94802 2212 ft 139 kts 157°
2026-04-22 08:14 52.99501 -8.94483 2123 ft 141 kts 154°
2026-04-22 08:14 52.98567 -8.94071 2149 ft 137 kts 153°
2026-04-22 08:14 52.97655 -8.93657 2100 ft 138 kts 151°
2026-04-22 08:14 52.96738 -8.93176 2075 ft 137 kts 151°
2026-04-22 08:15 52.95810 -8.92766 2077 ft 138 kts 154°
2026-04-22 08:15 52.94823 -8.92636 1965 ft 156 kts 176°
2026-04-22 08:15 52.93751 -8.93245 1952 ft 164 kts 193°
2026-04-22 08:15 52.92730 -8.94049 1984 ft 161 kts 191°
2026-04-22 08:16 52.91720 -8.94743 1983 ft 155 kts 184°
2026-04-22 08:16 52.90678 -8.95052 1912 ft 148 kts 168°
2026-04-22 08:16 52.89658 -8.95028 1941 ft 142 kts 162°
2026-04-22 08:16 52.88686 -8.94832 1897 ft 141 kts 158°
2026-04-22 08:17 52.87723 -8.94492 1895 ft 139 kts 153°
2026-04-22 08:17 52.86806 -8.94137 1940 ft 136 kts 155°
2026-04-22 08:17 52.85858 -8.93821 1886 ft 140 kts 156°
2026-04-22 08:17 52.84877 -8.93543 1848 ft 143 kts 158°
2026-04-22 08:18 52.83889 -8.93353 1841 ft 145 kts 161°
2026-04-22 08:18 52.82868 -8.93227 1872 ft 144 kts 163°
2026-04-22 08:18 52.81805 -8.93194 1860 ft 146 kts 165°
2026-04-22 08:18 52.80786 -8.93124 1837 ft 142 kts 160°
2026-04-22 08:19 52.79803 -8.92847 1840 ft 138 kts 153°
2026-04-22 08:19 52.78872 -8.92441 1813 ft 138 kts 153°
2026-04-22 08:19 52.77958 -8.91987 1784 ft 136 kts 147°
2026-04-22 08:19 52.77048 -8.91498 1696 ft 146 kts 158°
2026-04-22 08:20 52.75960 -8.91511 1492 ft 166 kts 175°
2026-04-22 08:20 52.74798 -8.91747 1409 ft 166 kts 177°
2026-04-22 08:20 52.73675 -8.92092 1439 ft 166 kts 190°
2026-04-22 08:20 52.72726 -8.93299 1357 ft 185 kts 222°
2026-04-22 08:21 52.72026 -8.95136 1274 ft 191 kts 240°
2026-04-22 08:21 52.71469 -8.97100 1251 ft 184 kts 240°
2026-04-22 08:21 52.70921 -8.99010 1140 ft 181 kts 238°
2026-04-22 08:21 52.70392 -9.00827 1130 ft 174 kts 238°
2026-04-22 08:22 52.69855 -9.02571 1101 ft 164 kts 231°
2026-04-22 08:22 52.69026 -9.03721 952 ft 152 kts 193°
2026-04-22 08:22 52.68066 -9.03754 886 ft 127 kts 154°
2026-04-22 08:22 52.67351 -9.03139 790 ft 107 kts 142°
2026-04-22 08:23 52.66788 -9.02500 696 ft 100 kts 133°
2026-04-22 08:23 52.66363 -9.01752 672 ft 81 kts 107°
2026-04-22 08:23 52.66409 -9.00814 468 ft 93 kts 65°
2026-04-22 08:23 52.66742 -8.99959 515 ft 85 kts 64°
2026-04-22 08:24 52.67071 -8.99184 535 ft 83 kts 61°
2026-04-22 08:24 52.67436 -8.98453 532 ft 84 kts 63°
2026-04-22 08:24 52.67799 -8.97664 517 ft 84 kts 60°
2026-04-22 08:24 52.68158 -8.96827 430 ft 91 kts 56°
2026-04-22 08:25 52.68560 -8.95988 335 ft 91 kts 60°
2026-04-22 08:25 52.68991 -8.95042 192 ft 92 kts 51°
2026-04-22 08:25 52.69440 -8.94104 44 ft 92 kts 57°
2026-04-22 08:25 52.69798 -8.93304 16 ft 59 kts 58°
2026-04-22 08:26 52.69904 -8.92949 12 ft 23 kts 129°
2026-04-22 08:26 52.69803 -8.92780 10 ft 15 kts 136°
2026-04-22 08:26 52.69732 -8.92671 9 ft 10 kts 135°
2026-04-22 08:26 52.69682 -8.92589 9 ft 8 kts 134°
2026-04-22 08:27 52.69631 -8.92508 9 ft 9 kts 136°
2026-04-22 08:27 52.69576 -8.92415 9 ft 10 kts 134°
2026-04-22 08:27 52.69522 -8.92311 9 ft 11 kts 122°
2026-04-22 08:27 52.69485 -8.92178 9 ft 11 kts 103°
2026-04-22 08:28 52.69465 -8.92044 9 ft 11 kts 102°
2026-04-22 08:28 52.69445 -8.91911 9 ft 11 kts 112°
2026-04-22 08:28 52.69400 -8.91780 7 ft 12 kts 144°
2026-04-22 08:28 52.69313 -8.91714 7 ft 13 kts 131°
2026-04-22 08:29 52.69249 -8.91573 6 ft 14 kts 105°
2026-04-22 08:29 52.69246 -8.91443 6 ft 10 kts 108°
2026-04-22 08:29 52.69237 -8.91348 5 ft 3 kts 118°
2026-04-22 08:29 52.69230 -8.91349 5 ft 0 kts 222°